contact:dominique.lefevre@mio.osupytheas.fr, maurice.libes@osupytheas.fr, didier.mallarino@osupytheas.fr
Project:EMSO http://www.emso-fr.org/EMSO-France
Depth: 2436.0 m
Title:EMSO Ligure Ouest : Data MII capteur CSTAR
DateTime,Latitude,Longitude,Instrument_Serial,Reference_Counts,Signal_Counts,Corrected_Signal_raw_counts,Calculated_Beam_c_inverse_meters,Internal_thermistor_counts
DateTime,Latitude,Longitude,Instrument_Serial,Reference_Counts,Signal_Counts,Corrected_Signal_raw_counts,Calculated_Beam_c_inverse_meters,Internal_thermistor_counts
2023-05-21T00:01:35,42.805,6.029,CST-1368DR,4292,4723,11681,01.161,552
2023-05-21T00:04:37,42.805,6.029,CST-1368DR,4292,4723,11681,01.161,552
2023-05-21T00:07:38,42.805,6.029,CST-1368DR,4292,4720,11675,01.163,552
2023-05-21T00:10:40,42.805,6.029,CST-1368DR,4292,4721,11678,01.162,552
2023-05-21T00:13:41,42.805,6.029,CST-1368DR,4292,4722,11680,01.162,552
2023-05-21T00:16:43,42.805,6.029,CST-1368DR,4292,4722,11680,01.162,552
2023-05-21T00:19:45,42.805,6.029,CST-1368DR,4292,4721,11676,01.163,552
2023-05-21T00:22:46,42.805,6.029,CST-1368DR,4292,4721,11676,01.163,552
2023-05-21T00:25:48,42.805,6.029,CST-1368DR,4292,4721,11678,01.162,552
2023-05-21T00:28:49,42.805,6.029,CST-1368DR,4292,4721,11676,01.163,552
2023-05-21T00:31:51,42.805,6.029,CST-1368DR,4292,4717,11667,01.166,552
2023-05-21T00:34:52,42.805,6.029,CST-1368DR,4292,4721,11676,01.163,552
2023-05-21T00:37:54,42.805,6.029,CST-1368DR,4292,4719,11673,01.164,552
2023-05-21T00:40:56,42.805,6.029,CST-1368DR,4292,4721,11678,01.162,551
2023-05-21T00:43:57,42.805,6.029,CST-1368DR,4292,4721,11676,01.163,552
2023-05-21T00:46:59,42.805,6.029,CST-1368DR,4292,4720,11675,01.163,552
2023-05-21T00:50:00,42.805,6.029,CST-1368DR,4292,4720,11673,01.164,552
2023-05-21T00:53:02,42.805,6.029,CST-1368DR,4292,4720,11675,01.163,552
2023-05-21T00:56:04,42.805,6.029,CST-1368DR,4292,4720,11675,01.163,552
2023-05-21T00:59:05,42.805,6.029,CST-1368DR,4292,4720,11675,01.163,552
2023-05-21T01:02:07,42.805,6.029,CST-1368DR,4292,4719,11673,01.164,552
2023-05-21T01:05:08,42.805,6.029,CST-1368DR,4292,4721,11678,01.162,552
2023-05-21T01:08:10,42.805,6.029,CST-1368DR,4292,4719,11672,01.164,552
2023-05-21T01:11:11,42.805,6.029,CST-1368DR,4292,4721,11678,01.162,552
2023-05-21T01:14:13,42.805,6.029,CST-1368DR,4292,4721,11676,01.163,552
2023-05-21T01:17:15,42.805,6.029,CST-1368DR,4292,4720,11674,01.164,552
2023-05-21T01:20:16,42.805,6.029,CST-1368DR,4292,4722,11678,01.162,552
2023-05-21T01:23:18,42.805,6.029,CST-1368DR,4292,4720,11675,01.163,552
2023-05-21T01:26:19,42.805,6.029,CST-1368DR,4292,4720,11675,01.163,552
2023-05-21T01:29:21,42.805,6.029,CST-1368DR,4292,4721,11676,01.163,552
2023-05-21T01:32:22,42.805,6.029,CST-1368DR,4292,4721,11676,01.163,552
2023-05-21T01:35:24,42.805,6.029,CST-1368DR,4292,4720,11675,01.163,552
2023-05-21T01:38:26,42.805,6.029,CST-1368DR,4292,4721,11676,01.163,552
2023-05-21T01:41:27,42.805,6.029,CST-1368DR,4292,4722,11679,01.162,552
2023-05-21T01:44:29,42.805,6.029,CST-1368DR,4292,4723,11681,01.161,552
2023-05-21T01:47:30,42.805,6.029,CST-1368DR,4292,4721,11676,01.163,552
2023-05-21T01:50:32,42.805,6.029,CST-1368DR,4292,4721,11676,01.163,552
2023-05-21T01:53:33,42.805,6.029,CST-1368DR,4292,4722,11680,01.162,552
2023-05-21T01:56:35,42.805,6.029,CST-1368DR,4292,4722,11680,01.162,552
2023-05-21T01:59:37,42.805,6.029,CST-1368DR,4292,4721,11676,01.163,551
2023-05-21T02:02:38,42.805,6.029,CST-1368DR,4292,4722,11678,01.162,552
2023-05-21T02:05:40,42.805,6.029,CST-1368DR,4292,4721,11676,01.163,552
2023-05-21T02:08:41,42.805,6.029,CST-1368DR,4292,4723,11681,01.161,552
2023-05-21T02:11:43,42.805,6.029,CST-1368DR,4292,4725,11687,01.159,552
2023-05-21T02:14:45,42.805,6.029,CST-1368DR,4292,4723,11681,01.161,552
2023-05-21T02:17:46,42.805,6.029,CST-1368DR,4291,4597,11373,01.268,552
2023-05-21T02:20:48,42.805,6.029,CST-1368DR,4292,4725,11686,01.160,552
2023-05-21T02:23:49,42.805,6.029,CST-1368DR,4292,4725,11688,01.159,552
2023-05-21T02:26:51,42.805,6.029,CST-1368DR,4292,4723,11682,01.161,552
2023-05-21T02:29:52,42.805,6.029,CST-1368DR,4292,4724,11683,01.161,551
2023-05-21T02:32:54,42.805,6.029,CST-1368DR,4292,4724,11684,01.160,552
2023-05-21T02:35:56,42.805,6.029,CST-1368DR,4292,4725,11688,01.159,552
2023-05-21T02:38:57,42.805,6.029,CST-1368DR,4292,4725,11688,01.159,552
2023-05-21T02:41:59,42.805,6.029,CST-1368DR,4292,4724,11684,01.160,552
2023-05-21T02:45:00,42.805,6.029,CST-1368DR,4292,4723,11681,01.161,552
2023-05-21T02:48:02,42.805,6.029,CST-1368DR,4292,4725,11686,01.160,552
2023-05-21T02:51:03,42.805,6.029,CST-1368DR,4292,4725,11686,01.160,552
2023-05-21T02:54:05,42.805,6.029,CST-1368DR,4292,4725,11687,01.159,552
2023-05-21T02:57:07,42.805,6.029,CST-1368DR,4292,4725,11686,01.160,552
2023-05-21T03:00:08,42.805,6.029,CST-1368DR,4292,4726,11689,01.159,552
2023-05-21T03:03:10,42.805,6.029,CST-1368DR,4292,4725,11686,01.160,552
2023-05-21T03:06:11,42.805,6.029,CST-1368DR,4292,4725,11688,01.159,552
2023-05-21T03:09:13,42.805,6.029,CST-1368DR,4292,4726,11688,01.159,552
2023-05-21T03:12:14,42.805,6.029,CST-1368DR,4292,4726,11688,01.159,552
2023-05-21T03:15:16,42.805,6.029,CST-1368DR,4292,4724,11684,01.160,552
2023-05-21T03:18:18,42.805,6.029,CST-1368DR,4292,4724,11684,01.160,552
2023-05-21T03:21:19,42.805,6.029,CST-1368DR,4292,4726,11688,01.159,552
2023-05-21T03:24:21,42.805,6.029,CST-1368DR,4292,4723,11682,01.161,552
2023-05-21T03:27:22,42.805,6.029,CST-1368DR,4292,4726,11688,01.159,552
2023-05-21T03:30:24,42.805,6.029,CST-1368DR,4292,4725,11687,01.159,552
2023-05-21T03:33:26,42.805,6.029,CST-1368DR,4292,4726,11689,01.159,552
2023-05-21T03:36:27,42.805,6.029,CST-1368DR,4292,4724,11683,01.161,552
2023-05-21T03:39:29,42.805,6.029,CST-1368DR,4292,4725,11688,01.159,552
2023-05-21T03:42:30,42.805,6.029,CST-1368DR,4292,4725,11686,01.160,552
2023-05-21T03:45:32,42.805,6.029,CST-1368DR,4292,4725,11686,01.160,552
2023-05-21T03:48:33,42.805,6.029,CST-1368DR,4292,4725,11686,01.160,552
2023-05-21T03:51:35,42.805,6.029,CST-1368DR,4292,4725,11687,01.159,552
2023-05-21T03:54:37,42.805,6.029,CST-1368DR,4292,4724,11684,01.160,552
2023-05-21T03:57:38,42.805,6.029,CST-1368DR,4292,4724,11684,01.160,552
2023-05-21T04:00:40,42.805,6.029,CST-1368DR,4292,4726,11689,01.159,552
2023-05-21T04:03:41,42.805,6.029,CST-1368DR,4292,4725,11687,01.159,552
2023-05-21T04:06:43,42.805,6.029,CST-1368DR,4292,4723,11683,01.161,552
2023-05-21T04:09:44,42.805,6.029,CST-1368DR,4292,4722,11678,01.162,552
2023-05-21T04:12:46,42.805,6.029,CST-1368DR,4292,4724,11683,01.161,552
2023-05-21T04:15:48,42.805,6.029,CST-1368DR,4292,4724,11683,01.161,552
2023-05-21T04:18:49,42.805,6.029,CST-1368DR,4292,4723,11682,01.161,552
2023-05-21T04:21:51,42.805,6.029,CST-1368DR,4292,4723,11681,01.161,552
2023-05-21T04:24:52,42.805,6.029,CST-1368DR,4292,4721,11676,01.163,552
2023-05-21T04:27:54,42.805,6.029,CST-1368DR,4292,4722,11680,01.162,552
2023-05-21T04:30:59,42.805,6.029,CST-1368DR,4292,4723,11681,01.161,552
2023-05-21T04:34:00,42.805,6.029,CST-1368DR,4292,4722,11680,01.162,552
2023-05-21T04:37:02,42.805,6.029,CST-1368DR,4292,4719,11671,01.165,552
2023-05-21T04:40:03,42.805,6.029,CST-1368DR,4292,4719,11672,01.164,552
2023-05-21T04:43:05,42.805,6.029,CST-1368DR,4292,4718,11670,01.165,552
2023-05-21T04:46:06,42.805,6.029,CST-1368DR,4292,4720,11675,01.163,552
2023-05-21T04:49:08,42.805,6.029,CST-1368DR,4292,4722,11680,01.162,552
2023-05-21T04:52:10,42.805,6.029,CST-1368DR,4292,4720,11674,01.164,552
2023-05-21T04:55:11,42.805,6.029,CST-1368DR,4292,4721,11678,01.162,552
2023-05-21T04:58:13,42.805,6.029,CST-1368DR,4292,4722,11680,01.162,552
2023-05-21T05:01:14,42.805,6.029,CST-1368DR,4292,4721,11676,01.163,552
2023-05-21T05:04:16,42.805,6.029,CST-1368DR,4292,4720,11673,01.164,552
2023-05-21T05:07:17,42.805,6.029,CST-1368DR,4292,4722,11680,01.162,552
2023-05-21T05:10:19,42.805,6.029,CST-1368DR,4292,4719,11673,01.164,552
2023-05-21T05:13:21,42.805,6.029,CST-1368DR,4292,4719,11673,01.164,552
2023-05-21T05:16:22,42.805,6.029,CST-1368DR,4292,4721,11676,01.163,552
2023-05-21T05:19:24,42.805,6.029,CST-1368DR,4292,4722,11679,01.162,552
2023-05-21T05:22:25,42.805,6.029,CST-1368DR,4292,4720,11675,01.163,552
2023-05-21T05:25:27,42.805,6.029,CST-1368DR,4292,4721,11676,01.163,552
2023-05-21T05:28:29,42.805,6.029,CST-1368DR,4292,4719,11673,01.164,552
2023-05-21T05:31:30,42.805,6.029,CST-1368DR,4292,4719,11672,01.164,552
2023-05-21T05:34:32,42.805,6.029,CST-1368DR,4292,4722,11680,01.162,552
2023-05-21T05:37:33,42.805,6.029,CST-1368DR,4292,4722,11678,01.162,552
2023-05-21T05:40:35,42.805,6.029,CST-1368DR,4292,4718,11670,01.165,552
2023-05-21T05:43:36,42.805,6.029,CST-1368DR,4292,4717,11667,01.166,552
2023-05-21T05:46:38,42.805,6.029,CST-1368DR,4292,4720,11674,01.164,552
2023-05-21T05:49:40,42.805,6.029,CST-1368DR,4292,4714,11660,01.169,552
2023-05-21T05:52:41,42.805,6.029,CST-1368DR,4292,4710,11650,01.172,552
2023-05-21T05:55:43,42.805,6.029,CST-1368DR,4292,4711,11653,01.171,552
2023-05-21T05:58:44,42.805,6.029,CST-1368DR,4292,4717,11667,01.166,552
2023-05-21T06:01:46,42.805,6.029,CST-1368DR,4292,4716,11665,01.167,552
2023-05-21T06:04:47,42.805,6.029,CST-1368DR,4292,4707,11643,01.174,552
2023-05-21T06:07:49,42.805,6.029,CST-1368DR,4292,4710,11650,01.172,552
2023-05-21T06:10:51,42.805,6.029,CST-1368DR,4292,4709,11646,01.173,552
2023-05-21T06:13:52,42.805,6.029,CST-1368DR,4292,4703,11633,01.178,552
2023-05-21T06:16:54,42.805,6.029,CST-1368DR,4292,4704,11636,01.177,552
2023-05-21T06:19:55,42.805,6.029,CST-1368DR,4292,4702,11629,01.179,552
2023-05-21T06:22:57,42.805,6.029,CST-1368DR,4292,4700,11624,01.181,552
2023-05-21T06:25:58,42.805,6.029,CST-1368DR,4292,4696,11615,01.184,552
2023-05-21T06:29:00,42.805,6.029,CST-1368DR,4292,4694,11610,01.186,552
2023-05-21T06:32:01,42.805,6.029,CST-1368DR,4292,4695,11613,01.185,552
2023-05-21T06:35:03,42.805,6.029,CST-1368DR,4292,4694,11609,01.186,552
2023-05-21T06:38:04,42.805,6.029,CST-1368DR,4292,4695,11612,01.185,552
2023-05-21T06:41:06,42.805,6.029,CST-1368DR,4292,4693,11607,01.187,552
2023-05-21T06:44:08,42.805,6.029,CST-1368DR,4292,4696,11615,01.184,552
2023-05-21T06:47:09,42.805,6.029,CST-1368DR,4292,4689,11597,01.190,552
2023-05-21T06:50:11,42.805,6.029,CST-1368DR,4292,4692,11604,01.188,552
2023-05-21T06:53:12,42.805,6.029,CST-1368DR,4292,4693,11607,01.187,552
2023-05-21T06:56:14,42.805,6.029,CST-1368DR,4292,4695,11612,01.185,552
2023-05-21T06:59:16,42.805,6.029,CST-1368DR,4292,4695,11612,01.185,552
2023-05-21T07:02:17,42.805,6.029,CST-1368DR,4292,4688,11595,01.191,552
2023-05-21T07:05:19,42.805,6.029,CST-1368DR,4292,4688,11595,01.191,552
2023-05-21T07:08:20,42.805,6.029,CST-1368DR,4292,4688,11596,01.191,552
2023-05-21T07:11:22,42.805,6.029,CST-1368DR,4292,4679,11573,01.198,552
2023-05-21T07:14:23,42.805,6.029,CST-1368DR,4292,4687,11592,01.192,552
2023-05-21T07:17:25,42.805,6.029,CST-1368DR,4292,4689,11597,01.190,552
2023-05-21T07:20:27,42.805,6.029,CST-1368DR,4292,4689,11599,01.190,552
2023-05-21T07:23:28,42.805,6.029,CST-1368DR,4292,4687,11592,01.192,552
2023-05-21T07:26:30,42.805,6.029,CST-1368DR,4292,4688,11595,01.191,552
2023-05-21T07:29:31,42.805,6.029,CST-1368DR,4292,4684,11586,01.194,552
2023-05-21T07:32:33,42.805,6.029,CST-1368DR,4292,4686,11590,01.193,552
2023-05-21T07:35:34,42.805,6.029,CST-1368DR,4292,4686,11589,01.193,552
2023-05-21T07:38:36,42.805,6.029,CST-1368DR,4292,4683,11584,01.195,552
2023-05-21T07:41:38,42.805,6.029,CST-1368DR,4292,4682,11581,01.196,552
2023-05-21T07:44:39,42.805,6.029,CST-1368DR,4292,4698,11621,01.182,552
2023-05-21T07:47:41,42.805,6.029,CST-1368DR,4292,4689,11597,01.190,552
2023-05-21T07:50:42,42.805,6.029,CST-1368DR,4292,4687,11593,01.192,552
2023-05-21T07:53:44,42.805,6.029,CST-1368DR,4292,4686,11589,01.193,552
2023-05-21T07:56:45,42.805,6.029,CST-1368DR,4292,4689,11597,01.190,551
2023-05-21T07:59:47,42.805,6.029,CST-1368DR,4292,4688,11595,01.191,552
2023-05-21T08:02:49,42.805,6.029,CST-1368DR,4292,4687,11592,01.192,552
2023-05-21T08:05:50,42.805,6.029,CST-1368DR,4292,4686,11591,01.192,552
2023-05-21T08:08:52,42.805,6.029,CST-1368DR,4292,4684,11586,01.194,552
2023-05-21T08:11:53,42.805,6.029,CST-1368DR,4292,4683,11584,01.195,552
2023-05-21T08:14:55,42.805,6.029,CST-1368DR,4292,4684,11584,01.195,552
2023-05-21T08:17:57,42.805,6.029,CST-1368DR,4292,4687,11592,01.192,552
2023-05-21T08:20:58,42.805,6.029,CST-1368DR,4292,4683,11584,01.195,552
2023-05-21T08:24:00,42.805,6.029,CST-1368DR,4292,4686,11589,01.193,552
2023-05-21T08:27:01,42.805,6.029,CST-1368DR,4292,4686,11590,01.193,552
2023-05-21T08:30:03,42.805,6.029,CST-1368DR,4292,4683,11582,01.195,552
2023-05-21T08:33:04,42.805,6.029,CST-1368DR,4292,4685,11587,01.194,552
2023-05-21T08:36:06,42.805,6.029,CST-1368DR,4292,4686,11590,01.193,552
2023-05-21T08:39:08,42.805,6.029,CST-1368DR,4292,4689,11597,01.190,552
2023-05-21T08:42:09,42.805,6.029,CST-1368DR,4292,4688,11595,01.191,552
2023-05-21T08:45:11,42.805,6.029,CST-1368DR,4292,4686,11590,01.193,551
2023-05-21T08:48:12,42.805,6.029,CST-1368DR,4292,4686,11589,01.193,552
2023-05-21T08:51:14,42.805,6.029,CST-1368DR,4292,4688,11595,01.191,552
2023-05-21T08:54:15,42.805,6.029,CST-1368DR,4292,4686,11591,01.192,552
2023-05-21T08:57:17,42.805,6.029,CST-1368DR,4292,4686,11590,01.193,552
2023-05-21T09:00:19,42.805,6.029,CST-1368DR,4291,4685,11591,01.192,552
2023-05-21T09:03:20,42.805,6.029,CST-1368DR,4292,4685,11588,01.193,552
2023-05-21T09:06:22,42.805,6.029,CST-1368DR,4292,4687,11592,01.192,552
2023-05-21T09:09:23,42.805,6.029,CST-1368DR,4291,4686,11592,01.192,552
2023-05-21T09:12:25,42.805,6.029,CST-1368DR,4292,4685,11589,01.193,552
2023-05-21T09:15:27,42.805,6.029,CST-1368DR,4292,4686,11589,01.193,552
2023-05-21T09:18:28,42.805,6.029,CST-1368DR,4292,4686,11590,01.193,552
2023-05-21T09:21:30,42.805,6.029,CST-1368DR,4292,4685,11589,01.193,552
2023-05-21T09:24:31,42.805,6.029,CST-1368DR,4292,4685,11589,01.193,552
2023-05-21T09:27:33,42.805,6.029,CST-1368DR,4291,4685,11590,01.193,552
2023-05-21T09:30:34,42.805,6.029,CST-1368DR,4292,4684,11586,01.194,552
2023-05-21T09:33:36,42.805,6.029,CST-1368DR,4291,4682,11582,01.195,552
2023-05-21T09:36:38,42.805,6.029,CST-1368DR,4292,4685,11587,01.194,552
2023-05-21T09:39:39,42.805,6.029,CST-1368DR,4291,4680,11577,01.197,552
2023-05-21T09:42:41,42.805,6.029,CST-1368DR,4291,4686,11594,01.191,552
2023-05-21T09:45:42,42.805,6.029,CST-1368DR,4291,4683,11584,01.195,552
2023-05-21T09:48:44,42.805,6.029,CST-1368DR,4292,4686,11589,01.193,552
2023-05-21T09:51:45,42.805,6.029,CST-1368DR,4291,4686,11592,01.192,551
2023-05-21T09:54:47,42.805,6.029,CST-1368DR,4292,4684,11584,01.195,552
2023-05-21T09:57:49,42.805,6.029,CST-1368DR,4292,4686,11590,01.193,552
2023-05-21T10:00:50,42.805,6.029,CST-1368DR,4291,4686,11592,01.192,552
2023-05-21T10:03:52,42.805,6.029,CST-1368DR,4291,4687,11596,01.191,552
2023-05-21T10:06:53,42.805,6.029,CST-1368DR,4291,4684,11588,01.193,552
2023-05-21T10:09:55,42.805,6.029,CST-1368DR,4291,4685,11589,01.193,552
2023-05-21T10:12:57,42.805,6.029,CST-1368DR,4291,4683,11586,01.194,552
2023-05-21T10:15:58,42.805,6.029,CST-1368DR,4291,4685,11591,01.192,552
2023-05-21T10:19:00,42.805,6.029,CST-1368DR,4291,4682,11582,01.195,552
2023-05-21T10:22:01,42.805,6.029,CST-1368DR,4291,4684,11587,01.194,552
2023-05-21T10:25:03,42.805,6.029,CST-1368DR,4291,4681,11581,01.196,552
2023-05-21T10:28:04,42.805,6.029,CST-1368DR,4291,4684,11587,01.194,552
2023-05-21T10:31:07,42.805,6.029,CST-1368DR,4292,4685,11587,01.194,552
2023-05-21T10:34:08,42.805,6.029,CST-1368DR,4291,4684,11588,01.193,552
2023-05-21T10:37:10,42.805,6.029,CST-1368DR,4291,4683,11586,01.194,552
2023-05-21T10:40:11,42.805,6.029,CST-1368DR,4291,4685,11591,01.192,552
2023-05-21T10:43:13,42.805,6.029,CST-1368DR,4291,4684,11589,01.193,552
2023-05-21T10:46:15,42.805,6.029,CST-1368DR,4292,4684,11586,01.194,552
2023-05-21T10:49:16,42.805,6.029,CST-1368DR,4292,4686,11589,01.193,552
2023-05-21T10:52:18,42.805,6.029,CST-1368DR,4291,4685,11591,01.192,552
2023-05-21T10:55:19,42.805,6.029,CST-1368DR,4291,4685,11589,01.193,552
2023-05-21T10:58:21,42.805,6.029,CST-1368DR,4291,4684,11589,01.193,552
2023-05-21T11:01:23,42.805,6.029,CST-1368DR,4291,4685,11591,01.192,551
2023-05-21T11:04:24,42.805,6.029,CST-1368DR,4291,4684,11589,01.193,552
2023-05-21T11:07:26,42.805,6.029,CST-1368DR,4291,4683,11586,01.194,552
2023-05-21T11:10:27,42.805,6.029,CST-1368DR,4291,4682,11584,01.195,552
2023-05-21T11:13:29,42.805,6.029,CST-1368DR,4291,4683,11585,01.194,552
2023-05-21T11:16:30,42.805,6.029,CST-1368DR,4291,4682,11584,01.195,552
2023-05-21T11:19:32,42.805,6.029,CST-1368DR,4291,4682,11582,01.195,552
2023-05-21T11:22:34,42.805,6.029,CST-1368DR,4291,4683,11586,01.194,552
2023-05-21T11:25:35,42.805,6.029,CST-1368DR,4291,4684,11588,01.193,552
2023-05-21T11:28:37,42.805,6.029,CST-1368DR,4291,4685,11591,01.192,552
2023-05-21T11:31:38,42.805,6.029,CST-1368DR,4291,4683,11586,01.194,552
2023-05-21T11:34:40,42.805,6.029,CST-1368DR,4291,4683,11585,01.194,552
2023-05-21T11:37:41,42.805,6.029,CST-1368DR,4291,4682,11583,01.195,552
2023-05-21T11:40:43,42.805,6.029,CST-1368DR,4291,4682,11584,01.195,552
2023-05-21T11:43:45,42.805,6.029,CST-1368DR,4291,4685,11589,01.193,552
2023-05-21T11:46:46,42.805,6.029,CST-1368DR,4291,4684,11587,01.194,552
2023-05-21T11:49:48,42.805,6.029,CST-1368DR,4291,4685,11589,01.193,552
2023-05-21T11:52:49,42.805,6.029,CST-1368DR,4291,4685,11591,01.192,551
2023-05-21T11:55:51,42.805,6.029,CST-1368DR,4291,4683,11586,01.194,552
2023-05-21T11:58:53,42.805,6.029,CST-1368DR,4291,4685,11589,01.193,552
2023-05-21T12:01:54,42.805,6.029,CST-1368DR,4291,4682,11583,01.195,552
2023-05-21T12:04:56,42.805,6.029,CST-1368DR,4291,4685,11590,01.193,552
2023-05-21T12:07:57,42.805,6.029,CST-1368DR,4291,4685,11590,01.193,552
2023-05-21T12:10:59,42.805,6.029,CST-1368DR,4291,4685,11591,01.192,552
2023-05-21T12:14:00,42.805,6.029,CST-1368DR,4291,4686,11593,01.192,552
2023-05-21T12:17:02,42.805,6.029,CST-1368DR,4291,4685,11591,01.192,552
2023-05-21T12:20:04,42.805,6.029,CST-1368DR,4291,4686,11592,01.192,552
2023-05-21T12:23:05,42.805,6.029,CST-1368DR,4291,4684,11589,01.193,551
2023-05-21T12:26:07,42.805,6.029,CST-1368DR,4291,4685,11591,01.192,552
2023-05-21T12:29:08,42.805,6.029,CST-1368DR,4291,4690,11603,01.188,552
2023-05-21T12:32:10,42.805,6.029,CST-1368DR,4291,4683,11586,01.194,552
2023-05-21T12:35:11,42.805,6.029,CST-1368DR,4291,4682,11583,01.195,552
2023-05-21T12:38:13,42.805,6.029,CST-1368DR,4291,4686,11593,01.192,552
2023-05-21T12:41:15,42.805,6.029,CST-1368DR,4291,4686,11592,01.192,552
2023-05-21T12:44:16,42.805,6.029,CST-1368DR,4291,4687,11595,01.191,552
2023-05-21T12:47:18,42.805,6.029,CST-1368DR,4291,4685,11591,01.192,552
2023-05-21T12:50:19,42.805,6.029,CST-1368DR,4291,4686,11594,01.191,552
2023-05-21T12:53:21,42.805,6.029,CST-1368DR,4291,4687,11596,01.191,552
2023-05-21T12:56:23,42.805,6.029,CST-1368DR,4291,4686,11592,01.192,552
2023-05-21T12:59:24,42.805,6.029,CST-1368DR,4291,4686,11593,01.192,552
2023-05-21T13:02:26,42.805,6.029,CST-1368DR,4291,4681,11581,01.196,552
2023-05-21T13:05:27,42.805,6.029,CST-1368DR,4291,4687,11594,01.191,552
2023-05-21T13:08:29,42.805,6.029,CST-1368DR,4291,4685,11589,01.193,552
2023-05-21T13:11:30,42.805,6.029,CST-1368DR,4291,4682,11584,01.195,552
2023-05-21T13:14:32,42.805,6.029,CST-1368DR,4291,4687,11596,01.191,552
2023-05-21T13:17:34,42.805,6.029,CST-1368DR,4291,4684,11589,01.193,552
2023-05-21T13:20:35,42.805,6.029,CST-1368DR,4291,4686,11592,01.192,551
2023-05-21T13:23:37,42.805,6.029,CST-1368DR,4291,4680,11578,01.197,552
2023-05-21T13:26:38,42.805,6.029,CST-1368DR,4291,4681,11581,01.196,552
2023-05-21T13:29:40,42.805,6.029,CST-1368DR,4291,4679,11576,01.197,552
2023-05-21T13:32:41,42.805,6.029,CST-1368DR,4291,4681,11580,01.196,552
2023-05-21T13:35:43,42.805,6.029,CST-1368DR,4291,4678,11573,01.198,552
2023-05-21T13:38:45,42.805,6.029,CST-1368DR,4291,4679,11576,01.197,552
2023-05-21T13:41:46,42.805,6.029,CST-1368DR,4291,4681,11580,01.196,552
2023-05-21T13:44:48,42.805,6.029,CST-1368DR,4291,4683,11586,01.194,552
2023-05-21T13:47:49,42.805,6.029,CST-1368DR,4291,4685,11589,01.193,552
2023-05-21T13:50:51,42.805,6.029,CST-1368DR,4291,4685,11591,01.192,552
2023-05-21T13:53:53,42.805,6.029,CST-1368DR,4291,4690,11602,01.188,552
2023-05-21T13:56:54,42.805,6.029,CST-1368DR,4291,4697,11620,01.182,552
2023-05-21T13:59:56,42.805,6.029,CST-1368DR,4291,4693,11611,01.185,552
2023-05-21T14:02:57,42.805,6.029,CST-1368DR,4291,4689,11600,01.189,552
2023-05-21T14:05:59,42.805,6.029,CST-1368DR,4291,4698,11623,01.181,552
2023-05-21T14:09:00,42.805,6.029,CST-1368DR,4291,4694,11613,01.185,552
2023-05-21T14:12:02,42.805,6.029,CST-1368DR,4291,4690,11603,01.188,552
2023-05-21T14:15:04,42.805,6.029,CST-1368DR,4291,4688,11598,01.190,551
2023-05-21T14:18:05,42.805,6.029,CST-1368DR,4291,4688,11598,01.190,552
2023-05-21T14:21:07,42.805,6.029,CST-1368DR,4291,4684,11588,01.193,552
2023-05-21T14:24:08,42.805,6.029,CST-1368DR,4291,4690,11602,01.188,552
2023-05-21T14:27:10,42.805,6.029,CST-1368DR,4291,4687,11596,01.191,552
2023-05-21T14:30:13,42.805,6.029,CST-1368DR,4291,4690,11604,01.188,552
2023-05-21T14:33:15,42.805,6.029,CST-1368DR,4291,4688,11599,01.190,552
2023-05-21T14:36:16,42.805,6.029,CST-1368DR,4291,4687,11596,01.191,552
2023-05-21T14:39:18,42.805,6.029,CST-1368DR,4291,4686,11594,01.191,552
2023-05-21T14:42:20,42.805,6.029,CST-1368DR,4291,4686,11594,01.191,552
2023-05-21T14:45:21,42.805,6.029,CST-1368DR,4291,4686,11593,01.192,552
2023-05-21T14:48:23,42.805,6.029,CST-1368DR,4291,4684,11587,01.194,552
2023-05-21T14:51:24,42.805,6.029,CST-1368DR,4291,4688,11597,01.190,552
2023-05-21T14:54:26,42.805,6.029,CST-1368DR,4291,4686,11594,01.191,552
2023-05-21T14:57:27,42.805,6.029,CST-1368DR,4291,4686,11594,01.191,552
2023-05-21T15:00:29,42.805,6.029,CST-1368DR,4291,4686,11594,01.191,552
2023-05-21T15:03:31,42.805,6.029,CST-1368DR,4291,4688,11597,01.190,552
2023-05-21T15:06:32,42.805,6.029,CST-1368DR,4291,4688,11597,01.190,552
2023-05-21T15:09:34,42.805,6.029,CST-1368DR,4291,4688,11597,01.190,552
2023-05-21T15:12:35,42.805,6.029,CST-1368DR,4291,4688,11597,01.190,552
2023-05-21T15:15:37,42.805,6.029,CST-1368DR,4291,4688,11597,01.190,552
2023-05-21T15:18:38,42.805,6.029,CST-1368DR,4291,4686,11593,01.192,552
2023-05-21T15:21:40,42.805,6.029,CST-1368DR,4291,4687,11596,01.191,552
2023-05-21T15:24:42,42.805,6.029,CST-1368DR,4291,4683,11584,01.195,552
2023-05-21T15:27:43,42.805,6.029,CST-1368DR,4291,4683,11585,01.194,552
2023-05-21T15:30:45,42.805,6.029,CST-1368DR,4291,4676,11567,01.201,552
2023-05-21T15:33:46,42.805,6.029,CST-1368DR,4291,4687,11594,01.191,551
2023-05-21T15:36:48,42.805,6.029,CST-1368DR,4291,4686,11593,01.192,552
2023-05-21T15:39:50,42.805,6.029,CST-1368DR,4291,4685,11591,01.192,552
2023-05-21T15:42:51,42.805,6.029,CST-1368DR,4291,4686,11592,01.192,552
2023-05-21T15:45:53,42.805,6.029,CST-1368DR,4291,4687,11596,01.191,552
2023-05-21T15:48:54,42.805,6.029,CST-1368DR,4291,4684,11589,01.193,552
2023-05-21T15:51:56,42.805,6.029,CST-1368DR,4291,4685,11591,01.192,552
2023-05-21T15:54:57,42.805,6.029,CST-1368DR,4291,4688,11597,01.190,552
2023-05-21T15:57:59,42.805,6.029,CST-1368DR,4291,4685,11591,01.192,552
2023-05-21T16:01:01,42.805,6.029,CST-1368DR,4291,4687,11594,01.191,552
2023-05-21T16:04:02,42.805,6.029,CST-1368DR,4291,4685,11589,01.193,552
2023-05-21T16:07:04,42.805,6.029,CST-1368DR,4291,4685,11591,01.192,552
2023-05-21T16:10:05,42.805,6.029,CST-1368DR,4291,4681,11581,01.196,552
2023-05-21T16:13:07,42.805,6.029,CST-1368DR,4291,4679,11576,01.197,552
2023-05-21T16:16:08,42.805,6.029,CST-1368DR,4291,4686,11592,01.192,551
2023-05-21T16:19:10,42.805,6.029,CST-1368DR,4291,4684,11589,01.193,552
2023-05-21T16:22:12,42.805,6.029,CST-1368DR,4291,4682,11583,01.195,552
2023-05-21T16:25:13,42.805,6.029,CST-1368DR,4291,4682,11583,01.195,552
2023-05-21T16:28:15,42.805,6.029,CST-1368DR,4291,4679,11575,01.198,552
2023-05-21T16:31:16,42.805,6.029,CST-1368DR,4291,4680,11577,01.197,552
2023-05-21T16:34:18,42.805,6.029,CST-1368DR,4291,4682,11582,01.195,552
2023-05-21T16:37:20,42.805,6.029,CST-1368DR,4291,4680,11578,01.197,552